Location: Ferintosh
(52.7647°N, 112.9692°W)
Time: 15:39:19
(UTC+00:00)

Transit 2A Rocket - Pass Details

Date: 27 May 2024
Orbit: 583 x 910 km, 66.7° (Epoch: 22 June)

Event Time Altitude Azimuth Distance (km) Brightness Sun altitude
Rises 09:51:47 0° 191° (S) 2,999 - -9.6°
Exits shadow 09:53:48 - 185° (S) 2,253 6.9 -9.4°
Reaches altitude 10° 09:54:07 10° 183° (S) 2,138 6.8 -9.4°
Maximum altitude 09:58:36 38° 116° (ESE) 1,119 6.0 -9.0°
Drops below altitude 10° 10:03:32 10° 50° (NE) 2,355 9.0 -8.6°
Sets 10:06:12 0° 43° (NE) 3,344 10.7 -8.4°
